Year,Month,Day,Hour,Minute,Value (Times are PST for temperature in C)
2017,07,31,00,00,17.20
2017,07,31,00,01,17.20
2017,07,31,00,02,17.20
2017,07,31,00,03,17.20
2017,07,31,00,04,17.20
2017,07,31,00,05,17.20
2017,07,31,00,06,17.20
2017,07,31,00,07,17.20
2017,07,31,00,08,17.30
2017,07,31,00,09,17.30
2017,07,31,00,10,17.50
2017,07,31,00,11,17.60
2017,07,31,00,12,17.60
2017,07,31,00,13,17.70
2017,07,31,00,14,17.80
2017,07,31,00,15,17.90
2017,07,31,00,16,18.00
2017,07,31,00,17,18.00
2017,07,31,00,18,18.10
2017,07,31,00,19,18.20
2017,07,31,00,20,18.20
2017,07,31,00,21,18.30
2017,07,31,00,22,18.30
2017,07,31,00,23,18.30
2017,07,31,00,24,18.30
2017,07,31,00,25,18.40
2017,07,31,00,26,18.50
2017,07,31,00,27,18.50
2017,07,31,00,28,18.60
2017,07,31,00,29,18.60
2017,07,31,00,30,18.60
2017,07,31,00,31,18.60
2017,07,31,00,32,18.60
2017,07,31,00,33,18.50
2017,07,31,00,34,18.40
2017,07,31,00,35,18.40
2017,07,31,00,36,18.30
2017,07,31,00,37,18.20
2017,07,31,00,38,18.10
2017,07,31,00,39,18.10
2017,07,31,00,40,18.00
2017,07,31,00,41,17.90
2017,07,31,00,42,17.90
2017,07,31,00,43,17.80
2017,07,31,00,44,17.80
2017,07,31,00,45,17.70
2017,07,31,00,46,17.70
2017,07,31,00,47,17.60
2017,07,31,00,48,17.60
2017,07,31,00,49,17.60
2017,07,31,00,50,17.50
2017,07,31,00,51,17.40
2017,07,31,00,52,17.40
2017,07,31,00,53,17.40
2017,07,31,00,54,17.30
2017,07,31,00,55,17.30
2017,07,31,00,56,17.30
2017,07,31,00,57,17.20
2017,07,31,00,58,17.20
2017,07,31,00,59,17.20
2017,07,31,01,00,17.10
2017,07,31,01,01,17.10
2017,07,31,01,02,17.00
2017,07,31,01,03,17.00
2017,07,31,01,04,17.00
2017,07,31,01,05,16.90
2017,07,31,01,06,16.80
2017,07,31,01,07,16.80
2017,07,31,01,08,16.70
2017,07,31,01,09,16.70
2017,07,31,01,10,16.70
2017,07,31,01,11,16.60
2017,07,31,01,12,16.60
2017,07,31,01,13,16.50
2017,07,31,01,14,16.50
2017,07,31,01,15,16.40
2017,07,31,01,16,16.40
2017,07,31,01,17,16.30
2017,07,31,01,18,16.30
2017,07,31,01,19,16.30
2017,07,31,01,20,16.30
2017,07,31,01,21,16.20
2017,07,31,01,22,16.20
2017,07,31,01,23,16.20
2017,07,31,01,24,16.10
2017,07,31,01,25,16.10
2017,07,31,01,26,16.10
2017,07,31,01,27,16.10
2017,07,31,01,28,16.00
2017,07,31,01,29,16.00
2017,07,31,01,30,16.00
2017,07,31,01,31,15.90
2017,07,31,01,32,15.90
2017,07,31,01,33,15.90
2017,07,31,01,34,15.90
2017,07,31,01,35,15.90
2017,07,31,01,36,15.90
2017,07,31,01,37,15.80
2017,07,31,01,38,15.80
2017,07,31,01,39,15.80
2017,07,31,01,40,15.80
2017,07,31,01,41,15.80
2017,07,31,01,42,15.80
2017,07,31,01,43,15.90
2017,07,31,01,44,15.90
2017,07,31,01,45,15.90
2017,07,31,01,46,15.90
2017,07,31,01,47,16.00
2017,07,31,01,48,16.10
2017,07,31,01,49,16.10
2017,07,31,01,50,16.10
2017,07,31,01,51,16.20
2017,07,31,01,52,16.20
2017,07,31,01,53,16.30
2017,07,31,01,54,16.30
2017,07,31,01,55,16.40
2017,07,31,01,56,16.40
2017,07,31,01,57,16.50
2017,07,31,01,58,16.50
2017,07,31,01,59,16.50
2017,07,31,02,00,16.60
2017,07,31,02,01,16.60
2017,07,31,02,02,16.60
2017,07,31,02,03,16.60
2017,07,31,02,04,16.60
2017,07,31,02,05,16.60
2017,07,31,02,06,16.60
2017,07,31,02,07,16.60
2017,07,31,02,08,16.60
2017,07,31,02,09,16.60
2017,07,31,02,10,16.60
2017,07,31,02,11,16.70
2017,07,31,02,12,16.70
2017,07,31,02,13,16.70
2017,07,31,02,14,16.70
2017,07,31,02,15,16.70
2017,07,31,02,16,16.80
2017,07,31,02,17,16.80
2017,07,31,02,18,16.80
2017,07,31,02,19,16.80
2017,07,31,02,20,16.80
2017,07,31,02,21,16.80
2017,07,31,02,22,16.80
2017,07,31,02,23,16.80
2017,07,31,02,24,16.80
2017,07,31,02,25,16.90
2017,07,31,02,26,16.90
2017,07,31,02,27,16.90
2017,07,31,02,28,16.90
2017,07,31,02,29,16.90
2017,07,31,02,30,16.90
2017,07,31,02,31,16.90
2017,07,31,02,32,16.90
2017,07,31,02,33,16.90
2017,07,31,02,34,16.90
2017,07,31,02,35,16.90
2017,07,31,02,36,16.90
2017,07,31,02,37,16.90
2017,07,31,02,38,16.80
2017,07,31,02,39,16.80
2017,07,31,02,40,16.80
2017,07,31,02,41,16.70
2017,07,31,02,42,16.70
2017,07,31,02,43,16.70
2017,07,31,02,44,16.70
2017,07,31,02,45,16.70
2017,07,31,02,46,16.70
2017,07,31,02,47,16.60
2017,07,31,02,48,16.60
2017,07,31,02,49,16.60
2017,07,31,02,50,16.50
2017,07,31,02,51,16.50
2017,07,31,02,52,16.40
2017,07,31,02,53,16.30
2017,07,31,02,54,16.30
2017,07,31,02,55,16.30
2017,07,31,02,56,16.20
2017,07,31,02,57,16.20
2017,07,31,02,58,16.10
2017,07,31,02,59,16.10
2017,07,31,03,00,16.10
2017,07,31,03,01,16.10
2017,07,31,03,02,16.00
2017,07,31,03,03,16.00
2017,07,31,03,04,15.90
2017,07,31,03,05,15.90
2017,07,31,03,06,15.90
2017,07,31,03,07,15.90
2017,07,31,03,08,15.80
2017,07,31,03,09,15.80
2017,07,31,03,10,15.80
2017,07,31,03,11,15.80
2017,07,31,03,12,15.70
2017,07,31,03,13,15.70
2017,07,31,03,14,15.70
2017,07,31,03,15,15.60
2017,07,31,03,16,15.60
2017,07,31,03,17,15.60
2017,07,31,03,18,15.50
2017,07,31,03,19,15.50
2017,07,31,03,20,15.50
2017,07,31,03,21,15.50
2017,07,31,03,22,15.50
2017,07,31,03,23,15.50
2017,07,31,03,24,15.40
2017,07,31,03,25,15.40
2017,07,31,03,26,15.40
2017,07,31,03,27,15.40
2017,07,31,03,28,15.40
2017,07,31,03,29,15.30
2017,07,31,03,30,15.30
2017,07,31,03,31,15.30
2017,07,31,03,32,15.30
2017,07,31,03,33,15.30
2017,07,31,03,34,15.40
2017,07,31,03,35,15.40
2017,07,31,03,36,15.40
2017,07,31,03,37,15.40
2017,07,31,03,38,15.50
2017,07,31,03,39,15.50
2017,07,31,03,40,15.50
2017,07,31,03,41,15.60
2017,07,31,03,42,15.60
2017,07,31,03,43,15.60
2017,07,31,03,44,15.60
2017,07,31,03,45,15.60
2017,07,31,03,46,15.60
2017,07,31,03,47,15.60
2017,07,31,03,48,15.60
2017,07,31,03,49,15.60
2017,07,31,03,50,15.60
2017,07,31,03,51,15.60
2017,07,31,03,52,15.60
2017,07,31,03,53,15.60
2017,07,31,03,54,15.60
2017,07,31,03,55,15.50
2017,07,31,03,56,15.50
2017,07,31,03,57,15.50
2017,07,31,03,58,15.50
2017,07,31,03,59,15.50
2017,07,31,04,00,15.50
2017,07,31,04,01,15.60
2017,07,31,04,02,15.60
2017,07,31,04,03,15.60
2017,07,31,04,04,15.60
2017,07,31,04,05,15.60
2017,07,31,04,06,15.60
2017,07,31,04,07,15.70
2017,07,31,04,08,15.60
2017,07,31,04,09,15.70
2017,07,31,04,10,15.70
2017,07,31,04,11,15.70
2017,07,31,04,12,15.70
2017,07,31,04,13,15.70
2017,07,31,04,14,15.70
2017,07,31,04,15,15.70
2017,07,31,04,16,15.70
2017,07,31,04,17,15.70
2017,07,31,04,18,15.70
2017,07,31,04,19,15.70
2017,07,31,04,20,15.80
2017,07,31,04,21,15.80
2017,07,31,04,22,15.80
2017,07,31,04,23,15.80
2017,07,31,04,24,15.80
2017,07,31,04,25,15.80
2017,07,31,04,26,15.80
2017,07,31,04,27,15.80
2017,07,31,04,28,15.80
2017,07,31,04,29,15.80
2017,07,31,04,30,15.80
2017,07,31,04,31,15.80
2017,07,31,04,32,15.80
2017,07,31,04,33,15.80
2017,07,31,04,34,15.80
2017,07,31,04,35,15.80
2017,07,31,04,36,15.70
2017,07,31,04,37,15.70
2017,07,31,04,38,15.70
2017,07,31,04,39,15.70
2017,07,31,04,40,15.70
2017,07,31,04,41,15.70
2017,07,31,04,42,15.60
2017,07,31,04,43,15.60
2017,07,31,04,44,15.60
2017,07,31,04,45,15.60
2017,07,31,04,46,15.50
2017,07,31,04,47,15.50
2017,07,31,04,48,15.50
2017,07,31,04,49,15.50
2017,07,31,04,50,15.40
2017,07,31,04,51,15.40
2017,07,31,04,52,15.40
2017,07,31,04,53,15.40
2017,07,31,04,54,15.40
2017,07,31,04,55,15.40
2017,07,31,04,56,15.40
2017,07,31,04,57,15.30
2017,07,31,04,58,15.30
2017,07,31,04,59,15.30
2017,07,31,05,00,15.30
2017,07,31,05,01,15.30
2017,07,31,05,02,15.30
2017,07,31,05,03,15.30
2017,07,31,05,04,15.30
2017,07,31,05,05,15.30
2017,07,31,05,06,15.30
2017,07,31,05,07,15.30
2017,07,31,05,08,15.30
2017,07,31,05,09,15.20
2017,07,31,05,10,15.20
2017,07,31,05,11,15.20
2017,07,31,05,12,15.20
2017,07,31,05,13,15.20
2017,07,31,05,14,15.20
2017,07,31,05,15,15.20
2017,07,31,05,16,15.20
2017,07,31,05,17,15.20
2017,07,31,05,18,15.20
2017,07,31,05,19,15.20
2017,07,31,05,20,15.10
2017,07,31,05,21,15.10
2017,07,31,05,22,15.20
2017,07,31,05,23,15.20
2017,07,31,05,24,15.20
2017,07,31,05,25,15.20
2017,07,31,05,26,15.20
2017,07,31,05,27,15.20
2017,07,31,05,28,15.20
2017,07,31,05,29,15.20
2017,07,31,05,30,15.20
2017,07,31,05,31,15.20
2017,07,31,05,32,15.20
2017,07,31,05,33,15.20
2017,07,31,05,34,15.20
2017,07,31,05,35,15.20
2017,07,31,05,36,15.20
2017,07,31,05,37,15.20
2017,07,31,05,38,15.20
2017,07,31,05,39,15.20
2017,07,31,05,40,15.20
2017,07,31,05,41,15.20
2017,07,31,05,42,15.30
2017,07,31,05,43,15.30
2017,07,31,05,44,15.30
2017,07,31,05,45,15.30
2017,07,31,05,46,15.30
2017,07,31,05,47,15.30
2017,07,31,05,48,15.30
2017,07,31,05,49,15.30
2017,07,31,05,50,15.30
2017,07,31,05,51,15.30
2017,07,31,05,52,15.30
2017,07,31,05,53,15.30
2017,07,31,05,54,15.30
2017,07,31,05,55,15.40
2017,07,31,05,56,15.40
2017,07,31,05,57,15.40
2017,07,31,05,58,15.40
2017,07,31,05,59,15.40
2017,07,31,06,00,15.40
2017,07,31,06,01,15.50
2017,07,31,06,02,15.50
2017,07,31,06,03,15.50
2017,07,31,06,04,15.50
2017,07,31,06,05,15.50
2017,07,31,06,06,15.50
2017,07,31,06,07,15.50
2017,07,31,06,08,15.50
2017,07,31,06,09,15.50
2017,07,31,06,10,15.50
2017,07,31,06,11,15.50
2017,07,31,06,12,15.50
2017,07,31,06,13,15.50
2017,07,31,06,14,15.50
2017,07,31,06,15,15.50
2017,07,31,06,16,15.40
2017,07,31,06,17,15.40
2017,07,31,06,18,15.40
2017,07,31,06,19,15.40
2017,07,31,06,20,15.30
2017,07,31,06,21,15.30
2017,07,31,06,22,15.30
2017,07,31,06,23,15.40
2017,07,31,06,24,15.40
2017,07,31,06,25,15.40
2017,07,31,06,26,15.40
2017,07,31,06,27,15.40
2017,07,31,06,28,15.30
2017,07,31,06,29,15.30
2017,07,31,06,30,15.30
2017,07,31,06,31,15.30
2017,07,31,06,32,15.30
2017,07,31,06,33,15.40
2017,07,31,06,34,15.40
2017,07,31,06,35,15.40
2017,07,31,06,36,15.40
2017,07,31,06,37,15.40
2017,07,31,06,38,15.50
2017,07,31,06,39,15.50
2017,07,31,06,40,15.50
2017,07,31,06,41,15.50
2017,07,31,06,42,15.50
2017,07,31,06,43,15.50
2017,07,31,06,44,15.50
2017,07,31,06,45,15.60
2017,07,31,06,46,15.60
2017,07,31,06,47,15.60
2017,07,31,06,48,15.60
2017,07,31,06,49,15.60
2017,07,31,06,50,15.60
2017,07,31,06,51,15.60
2017,07,31,06,52,15.60
2017,07,31,06,53,15.60
2017,07,31,06,54,15.60
2017,07,31,06,55,15.70
2017,07,31,06,56,15.70
2017,07,31,06,57,15.70
2017,07,31,06,58,15.70
2017,07,31,06,59,15.70
2017,07,31,07,00,15.70
2017,07,31,07,01,15.70
2017,07,31,07,02,15.70
2017,07,31,07,03,15.70
2017,07,31,07,04,15.70
2017,07,31,07,05,15.70
2017,07,31,07,06,15.70
2017,07,31,07,07,15.70
2017,07,31,07,08,15.70
2017,07,31,07,09,15.70
2017,07,31,07,10,15.80
2017,07,31,07,11,15.80
2017,07,31,07,12,15.80
2017,07,31,07,13,15.90
2017,07,31,07,14,16.00
2017,07,31,07,15,16.00
2017,07,31,07,16,16.10
2017,07,31,07,17,16.10
2017,07,31,07,18,16.20
2017,07,31,07,19,16.20
2017,07,31,07,20,16.30
2017,07,31,07,21,16.30
2017,07,31,07,22,16.30
2017,07,31,07,23,16.40
2017,07,31,07,24,16.40
2017,07,31,07,25,16.50
2017,07,31,07,26,16.50
2017,07,31,07,27,16.60
2017,07,31,07,28,16.60
2017,07,31,07,29,16.70
2017,07,31,07,30,16.70
2017,07,31,07,31,16.70
2017,07,31,07,32,16.80
2017,07,31,07,33,16.80
2017,07,31,07,34,16.80
2017,07,31,07,35,16.80
2017,07,31,07,36,16.80
2017,07,31,07,37,16.90
2017,07,31,07,38,16.90
2017,07,31,07,39,16.90
2017,07,31,07,40,16.90
2017,07,31,07,41,16.90
2017,07,31,07,42,17.00
2017,07,31,07,43,17.00
2017,07,31,07,44,17.00
2017,07,31,07,45,17.10
2017,07,31,07,46,17.10
2017,07,31,07,47,17.20
2017,07,31,07,48,17.30
2017,07,31,07,49,17.30
2017,07,31,07,50,17.40
2017,07,31,07,51,17.50
2017,07,31,07,52,17.50
2017,07,31,07,53,17.60
2017,07,31,07,54,17.60
2017,07,31,07,55,17.60
2017,07,31,07,56,17.70
2017,07,31,07,57,17.70
2017,07,31,07,58,17.80
2017,07,31,07,59,17.80
2017,07,31,08,00,17.90
2017,07,31,08,01,17.90
2017,07,31,08,02,18.00
2017,07,31,08,03,18.10
2017,07,31,08,04,18.10
2017,07,31,08,05,18.20
2017,07,31,08,06,18.20
2017,07,31,08,07,18.20
2017,07,31,08,08,18.30
2017,07,31,08,09,18.30
2017,07,31,08,10,18.40
2017,07,31,08,11,18.40
2017,07,31,08,12,18.40
2017,07,31,08,13,18.40
2017,07,31,08,14,18.50
2017,07,31,08,15,18.50
2017,07,31,08,16,18.60
2017,07,31,08,17,18.70
2017,07,31,08,18,18.80
2017,07,31,08,19,18.90
2017,07,31,08,20,18.90
2017,07,31,08,21,18.90
2017,07,31,08,22,18.90
2017,07,31,08,23,18.90
2017,07,31,08,24,19.00
2017,07,31,08,25,19.00
2017,07,31,08,26,19.10
2017,07,31,08,27,19.10
2017,07,31,08,28,19.10
2017,07,31,08,29,19.20
2017,07,31,08,30,19.20
2017,07,31,08,31,19.30
2017,07,31,08,32,19.30
2017,07,31,08,33,19.40
2017,07,31,08,34,19.40
2017,07,31,08,35,19.50
2017,07,31,08,36,19.60
2017,07,31,08,37,19.60
2017,07,31,08,38,19.60
2017,07,31,08,39,19.60
2017,07,31,08,40,19.50
2017,07,31,08,41,19.40
2017,07,31,08,42,19.40
2017,07,31,08,43,19.30
2017,07,31,08,44,19.20
2017,07,31,08,45,19.20
2017,07,31,08,46,19.10
2017,07,31,08,47,19.10
2017,07,31,08,48,19.10
2017,07,31,08,49,19.10
2017,07,31,08,50,19.10
2017,07,31,08,51,19.10
2017,07,31,08,52,19.10
2017,07,31,08,53,19.20
2017,07,31,08,54,19.20
2017,07,31,08,55,19.30
2017,07,31,08,56,19.40
2017,07,31,08,57,19.40
2017,07,31,08,58,19.50
2017,07,31,08,59,19.50
2017,07,31,09,00,19.60
2017,07,31,09,01,19.60
2017,07,31,09,02,19.70
2017,07,31,09,03,19.70
2017,07,31,09,04,19.70
2017,07,31,09,05,19.80
2017,07,31,09,06,19.90
2017,07,31,09,07,20.00
2017,07,31,09,08,20.10
2017,07,31,09,09,20.10
2017,07,31,09,10,20.20
2017,07,31,09,11,20.20
2017,07,31,09,12,20.20
2017,07,31,09,13,20.20
2017,07,31,09,14,20.20
2017,07,31,09,15,20.10
2017,07,31,09,16,20.00
2017,07,31,09,17,20.00
2017,07,31,09,18,19.90
2017,07,31,09,19,19.90
2017,07,31,09,20,19.90
2017,07,31,09,21,19.90
2017,07,31,09,22,20.00
2017,07,31,09,23,20.00
2017,07,31,09,24,20.10
2017,07,31,09,25,20.10
2017,07,31,09,26,20.10
2017,07,31,09,27,20.10
2017,07,31,09,28,20.20
2017,07,31,09,29,20.30
2017,07,31,09,30,20.30
2017,07,31,09,31,20.40
2017,07,31,09,32,20.50
2017,07,31,09,33,20.50
2017,07,31,09,34,20.50
2017,07,31,09,35,20.60
2017,07,31,09,36,20.60
2017,07,31,09,37,20.70
2017,07,31,09,38,20.70
2017,07,31,09,39,20.80
2017,07,31,09,40,20.90
2017,07,31,09,41,20.90
2017,07,31,09,42,20.90
2017,07,31,09,43,20.90
2017,07,31,09,44,20.90
2017,07,31,09,45,21.00
2017,07,31,09,46,21.00
2017,07,31,09,47,21.10
2017,07,31,09,48,21.10
2017,07,31,09,49,21.20
2017,07,31,09,50,21.20
2017,07,31,09,51,21.20
2017,07,31,09,52,21.10
2017,07,31,09,53,21.10
2017,07,31,09,54,21.10
2017,07,31,09,55,21.20
2017,07,31,09,56,21.20
2017,07,31,09,57,21.20
2017,07,31,09,58,21.20
2017,07,31,09,59,21.30
2017,07,31,10,00,21.30
2017,07,31,10,01,21.30
2017,07,31,10,02,21.30
2017,07,31,10,03,21.30
2017,07,31,10,04,21.40
2017,07,31,10,05,21.40
2017,07,31,10,06,21.30
2017,07,31,10,07,21.30
2017,07,31,10,08,21.40
2017,07,31,10,09,21.40
2017,07,31,10,10,21.40
2017,07,31,10,11,21.40
2017,07,31,10,12,21.50
2017,07,31,10,13,21.50
2017,07,31,10,14,21.60
2017,07,31,10,15,21.60
2017,07,31,10,16,21.60
2017,07,31,10,17,21.60
2017,07,31,10,18,21.70
2017,07,31,10,19,21.70
2017,07,31,10,20,21.80
2017,07,31,10,21,21.80
2017,07,31,10,22,21.90
2017,07,31,10,23,22.00
2017,07,31,10,24,22.00
2017,07,31,10,25,22.10
2017,07,31,10,26,22.10
2017,07,31,10,27,22.00
2017,07,31,10,28,21.90
2017,07,31,10,29,21.80
2017,07,31,10,30,21.70
2017,07,31,10,31,21.60
2017,07,31,10,32,21.50
2017,07,31,10,33,21.50
2017,07,31,10,34,21.40
2017,07,31,10,35,21.50
2017,07,31,10,36,21.60
2017,07,31,10,37,21.60
2017,07,31,10,38,21.70
2017,07,31,10,39,21.80
2017,07,31,10,40,21.80
2017,07,31,10,41,21.80
2017,07,31,10,42,21.90
2017,07,31,10,43,21.90
2017,07,31,10,44,21.80
2017,07,31,10,45,21.80
2017,07,31,10,46,21.70
2017,07,31,10,47,21.70
2017,07,31,10,48,21.60
2017,07,31,10,49,21.40
2017,07,31,10,50,21.30
2017,07,31,10,51,21.20
2017,07,31,10,52,21.20
2017,07,31,10,53,21.20
2017,07,31,10,54,21.20
2017,07,31,10,55,21.20
2017,07,31,10,56,21.20
2017,07,31,10,57,21.20
2017,07,31,10,58,21.20
2017,07,31,10,59,21.10
2017,07,31,11,00,20.90
2017,07,31,11,01,20.80
2017,07,31,11,02,20.80
2017,07,31,11,03,20.80
2017,07,31,11,04,20.70
2017,07,31,11,05,20.80
2017,07,31,11,06,20.80
2017,07,31,11,07,20.80
2017,07,31,11,08,20.80
2017,07,31,11,09,20.80
2017,07,31,11,10,20.80
2017,07,31,11,11,20.90
2017,07,31,11,12,20.90
2017,07,31,11,13,20.90
2017,07,31,11,14,20.90
2017,07,31,11,15,20.90
2017,07,31,11,16,21.00
2017,07,31,11,17,21.00
2017,07,31,11,18,21.00
2017,07,31,11,19,21.00
2017,07,31,11,20,21.10
2017,07,31,11,21,21.10
2017,07,31,11,22,21.20
2017,07,31,11,23,21.20
2017,07,31,11,24,21.30
2017,07,31,11,25,21.30
2017,07,31,11,26,21.30
2017,07,31,11,27,21.30
2017,07,31,11,28,21.30
2017,07,31,11,29,21.30
2017,07,31,11,30,21.30
2017,07,31,11,31,21.30
2017,07,31,11,32,21.40
2017,07,31,11,33,21.50
2017,07,31,11,34,21.60
2017,07,31,11,35,21.60
2017,07,31,11,36,21.50
2017,07,31,11,37,21.40
2017,07,31,11,38,21.30
2017,07,31,11,39,21.40
2017,07,31,11,40,21.40
2017,07,31,11,41,21.40
2017,07,31,11,42,21.40
2017,07,31,11,43,21.50
2017,07,31,11,44,21.50
2017,07,31,11,45,21.60
2017,07,31,11,46,21.70
2017,07,31,11,47,21.80
2017,07,31,11,48,21.90
2017,07,31,11,49,21.90
2017,07,31,11,50,22.00
2017,07,31,11,51,22.10
2017,07,31,11,52,22.10
2017,07,31,11,53,22.20
2017,07,31,11,54,22.20
2017,07,31,11,55,22.10
2017,07,31,11,56,22.00
2017,07,31,11,57,22.00
2017,07,31,11,58,21.90
2017,07,31,11,59,21.80
2017,07,31,12,00,21.80
2017,07,31,12,01,21.70
2017,07,31,12,02,21.60
2017,07,31,12,03,21.50
2017,07,31,12,04,21.40
2017,07,31,12,05,21.30
2017,07,31,12,06,21.20
2017,07,31,12,07,21.10
2017,07,31,12,08,21.00
2017,07,31,12,09,21.00
2017,07,31,12,10,20.90
2017,07,31,12,11,20.90
2017,07,31,12,12,20.90
2017,07,31,12,13,20.90
2017,07,31,12,14,20.90
2017,07,31,12,15,21.00
2017,07,31,12,16,21.00
2017,07,31,12,17,21.00
2017,07,31,12,18,21.10
2017,07,31,12,19,21.10
2017,07,31,12,20,21.10
2017,07,31,12,21,21.20
2017,07,31,12,22,21.40
2017,07,31,12,23,21.60
2017,07,31,12,24,21.80
2017,07,31,12,25,21.90
2017,07,31,12,26,21.90
2017,07,31,12,27,22.00
2017,07,31,12,28,22.00
2017,07,31,12,29,22.00
2017,07,31,12,30,22.00
2017,07,31,12,31,21.90
2017,07,31,12,32,21.80
2017,07,31,12,33,21.80
2017,07,31,12,34,21.70
2017,07,31,12,35,21.70
2017,07,31,12,36,21.70
2017,07,31,12,37,21.70
2017,07,31,12,38,21.80
2017,07,31,12,39,21.90
2017,07,31,12,40,22.00
2017,07,31,12,41,22.10
2017,07,31,12,42,22.30
2017,07,31,12,43,22.40
2017,07,31,12,44,22.50
2017,07,31,12,45,22.70
2017,07,31,12,46,22.80
2017,07,31,12,47,22.90
2017,07,31,12,48,23.00
2017,07,31,12,49,23.00
2017,07,31,12,50,22.90
2017,07,31,12,51,22.90
2017,07,31,12,52,22.80
2017,07,31,12,53,22.80
2017,07,31,12,54,22.80
2017,07,31,12,55,22.80
2017,07,31,12,56,22.70
2017,07,31,12,57,22.70
2017,07,31,12,58,22.70
2017,07,31,12,59,22.70
2017,07,31,13,00,22.80
2017,07,31,13,01,22.90
2017,07,31,13,02,23.00
2017,07,31,13,03,23.10
2017,07,31,13,04,23.10
2017,07,31,13,05,23.10
2017,07,31,13,06,23.10
2017,07,31,13,07,23.10
2017,07,31,13,08,23.30
2017,07,31,13,09,23.40
2017,07,31,13,10,23.50
2017,07,31,13,11,23.60
2017,07,31,13,12,23.80
2017,07,31,13,13,23.90
2017,07,31,13,14,24.00
2017,07,31,13,15,24.00
2017,07,31,13,16,24.10
2017,07,31,13,17,24.20
2017,07,31,13,18,24.30
2017,07,31,13,19,24.30
2017,07,31,13,20,24.30
2017,07,31,13,21,24.30
2017,07,31,13,22,24.40
2017,07,31,13,23,24.40
2017,07,31,13,24,24.50
2017,07,31,13,25,24.60
2017,07,31,13,26,24.70
2017,07,31,13,27,24.80
2017,07,31,13,28,24.90
2017,07,31,13,29,25.00
2017,07,31,13,30,25.00
2017,07,31,13,31,25.00
2017,07,31,13,32,25.00
2017,07,31,13,33,25.00
2017,07,31,13,34,25.10
2017,07,31,13,35,25.20
2017,07,31,13,36,25.20
2017,07,31,13,37,25.20
2017,07,31,13,38,25.20
2017,07,31,13,39,25.10
2017,07,31,13,40,25.10
2017,07,31,13,41,25.30
2017,07,31,13,42,25.30
2017,07,31,13,43,25.40
2017,07,31,13,44,25.50
2017,07,31,13,45,25.60
2017,07,31,13,46,25.70
2017,07,31,13,47,25.80
2017,07,31,13,48,26.00
2017,07,31,13,49,26.20
2017,07,31,13,50,26.30
2017,07,31,13,51,26.40
2017,07,31,13,52,26.50
2017,07,31,13,53,26.50
2017,07,31,13,54,26.40
2017,07,31,13,55,26.30
2017,07,31,13,56,26.10
2017,07,31,13,57,26.00
2017,07,31,13,58,25.90
2017,07,31,13,59,25.80
2017,07,31,14,00,25.80
2017,07,31,14,01,25.70
2017,07,31,14,02,25.70
2017,07,31,14,03,25.70
2017,07,31,14,04,25.80
2017,07,31,14,05,25.80
2017,07,31,14,06,25.80
2017,07,31,14,07,25.80
2017,07,31,14,08,25.80
2017,07,31,14,09,25.80
2017,07,31,14,10,25.80
2017,07,31,14,11,25.90
2017,07,31,14,12,25.90
2017,07,31,14,13,26.00
2017,07,31,14,14,26.10
2017,07,31,14,15,26.10
2017,07,31,14,16,26.20
2017,07,31,14,17,26.30
2017,07,31,14,18,26.30
2017,07,31,14,19,26.40
2017,07,31,14,20,26.50
2017,07,31,14,21,26.50
2017,07,31,14,22,26.60
2017,07,31,14,23,26.60
2017,07,31,14,24,26.50
2017,07,31,14,25,26.40
2017,07,31,14,26,26.30
2017,07,31,14,27,26.30
2017,07,31,14,28,26.30
2017,07,31,14,29,26.20
2017,07,31,14,30,26.10
2017,07,31,14,31,26.10
2017,07,31,14,32,26.10
2017,07,31,14,33,26.10
2017,07,31,14,34,26.10
2017,07,31,14,35,26.10
2017,07,31,14,36,26.10
2017,07,31,14,37,26.00
2017,07,31,14,38,26.00
2017,07,31,14,39,26.00
2017,07,31,14,40,25.80
2017,07,31,14,41,25.80
2017,07,31,14,42,25.70
2017,07,31,14,43,25.70
2017,07,31,14,44,25.70
2017,07,31,14,45,25.70
2017,07,31,14,46,25.70
2017,07,31,14,47,25.60
2017,07,31,14,48,25.60
2017,07,31,14,49,25.60
2017,07,31,14,50,25.50
2017,07,31,14,51,25.50
2017,07,31,14,52,25.40
2017,07,31,14,53,25.20
2017,07,31,14,54,25.20
2017,07,31,14,55,25.20
2017,07,31,14,56,25.20
2017,07,31,14,57,25.30
2017,07,31,14,58,25.40
2017,07,31,14,59,25.60
2017,07,31,15,00,25.70
2017,07,31,15,01,25.90
2017,07,31,15,02,26.00
2017,07,31,15,03,26.00
2017,07,31,15,04,26.00
2017,07,31,15,05,26.00
2017,07,31,15,06,26.00
2017,07,31,15,07,26.00
2017,07,31,15,08,26.00
2017,07,31,15,09,26.00
2017,07,31,15,10,26.00
2017,07,31,15,11,26.10
2017,07,31,15,12,26.10
2017,07,31,15,13,26.10
2017,07,31,15,14,26.10
2017,07,31,15,15,26.20
2017,07,31,15,16,26.30
2017,07,31,15,17,26.30
2017,07,31,15,18,26.30
2017,07,31,15,19,26.30
2017,07,31,15,20,26.30
2017,07,31,15,21,26.40
2017,07,31,15,22,26.40
2017,07,31,15,23,26.40
2017,07,31,15,24,26.40
2017,07,31,15,25,26.50
2017,07,31,15,26,26.60
2017,07,31,15,27,26.70
2017,07,31,15,28,26.80
2017,07,31,15,29,26.80
2017,07,31,15,30,26.80
2017,07,31,15,31,26.80
2017,07,31,15,32,26.80
2017,07,31,15,33,26.80
2017,07,31,15,34,26.80
2017,07,31,15,35,26.90
2017,07,31,15,36,27.00
2017,07,31,15,37,27.20
2017,07,31,15,38,27.30
2017,07,31,15,39,27.40
2017,07,31,15,40,27.40
2017,07,31,15,41,27.40
2017,07,31,15,42,27.40
2017,07,31,15,43,27.50
2017,07,31,15,44,27.60
2017,07,31,15,45,27.70
2017,07,31,15,46,27.80
2017,07,31,15,47,27.80
2017,07,31,15,48,27.90
2017,07,31,15,49,27.90
2017,07,31,15,50,27.80
2017,07,31,15,51,27.70
2017,07,31,15,52,27.70
2017,07,31,15,53,27.70
2017,07,31,15,54,27.80
2017,07,31,15,55,27.80
2017,07,31,15,56,27.90
2017,07,31,15,57,27.90
2017,07,31,15,58,28.00
2017,07,31,15,59,28.00
2017,07,31,16,00,28.20
2017,07,31,16,01,28.30
2017,07,31,16,02,28.20
2017,07,31,16,03,28.20
2017,07,31,16,04,28.10
2017,07,31,16,05,28.00
2017,07,31,16,06,27.90
2017,07,31,16,07,27.80
2017,07,31,16,08,27.70
2017,07,31,16,09,27.70
2017,07,31,16,10,27.60
2017,07,31,16,11,27.60
2017,07,31,16,12,27.60
2017,07,31,16,13,27.60
2017,07,31,16,14,27.60
2017,07,31,16,15,27.60
2017,07,31,16,16,27.70
2017,07,31,16,17,27.70
2017,07,31,16,18,27.70
2017,07,31,16,19,27.80
2017,07,31,16,20,27.90
2017,07,31,16,21,28.00
2017,07,31,16,22,28.10
2017,07,31,16,23,28.20
2017,07,31,16,24,28.20
2017,07,31,16,25,28.20
2017,07,31,16,26,28.20
2017,07,31,16,27,28.20
2017,07,31,16,28,28.20
2017,07,31,16,29,28.20
2017,07,31,16,30,28.20
2017,07,31,16,31,28.20
2017,07,31,16,32,28.20
2017,07,31,16,33,28.10
2017,07,31,16,34,28.10
2017,07,31,16,35,28.10
2017,07,31,16,36,28.10
2017,07,31,16,37,28.20
2017,07,31,16,38,28.20
2017,07,31,16,39,28.20
2017,07,31,16,40,28.20
2017,07,31,16,41,28.20
2017,07,31,16,42,28.20
2017,07,31,16,43,28.20
2017,07,31,16,44,28.30
2017,07,31,16,45,28.40
2017,07,31,16,46,28.50
2017,07,31,16,47,28.60
2017,07,31,16,48,28.80
2017,07,31,16,49,28.90
2017,07,31,16,50,29.00
2017,07,31,16,51,29.00
2017,07,31,16,52,29.00
2017,07,31,16,53,29.10
2017,07,31,16,54,29.10
2017,07,31,16,55,29.10
2017,07,31,16,56,29.10
2017,07,31,16,57,29.10
2017,07,31,16,58,29.00
2017,07,31,16,59,28.90
2017,07,31,17,00,28.70
2017,07,31,17,01,28.70
2017,07,31,17,02,28.70
2017,07,31,17,03,28.70
2017,07,31,17,04,28.60
2017,07,31,17,05,28.60
2017,07,31,17,06,28.50
2017,07,31,17,07,28.40
2017,07,31,17,08,28.30
2017,07,31,17,09,28.20
2017,07,31,17,10,28.20
2017,07,31,17,11,28.10
2017,07,31,17,12,28.10
2017,07,31,17,13,28.10
2017,07,31,17,14,28.00
2017,07,31,17,15,28.00
2017,07,31,17,16,28.00
2017,07,31,17,17,27.90
2017,07,31,17,18,28.00
2017,07,31,17,19,28.10